Temperature
17 17 17 17 17 17 19 21 22 21 21 20 20 20 19 17 17 15 12 12 12 13 13 13 12 12 12 12 12 13 13 13 13 13 13 13 13 13 13 13 13 13 13 13 14 14 14 14 14
16 16 17 18 17 18 19 21 21 20 19 19 18 19 18 15 14 13 12 12 12 12 12 12 12 12 12 12 12 12 12 13 13 13 13 13 13 13 13 13 13 13 13 13 13 13 13 14 14
16 16 17 17 18 18 20 21 20 18 18 18 18 17 16 14 13 12 12 12 12 12 12 12 12 12 11 11 12 12 12 12 12 12 12 12 12 13 13 13 13 13 13 13 13 13 13 13 13
16 16 18 17 18 19 20 20 19 18 18 18 17 16 14 13 12 12 12 11 11 11 12 12 11 11 11 11 11 11 12 12 12 12 12 12 12 12 12 12 12 13 13 13 13 13 13 13 13
16 17 17 17 18 19 20 20 19 18 18 18 17 15 13 12 12 12 11 11 11 11 11 11 11 11 11 11 11 11 11 11 11 12 12 12 12 12 12 12 12 12 12 12 12 12 13 12 12
16 17 16 17 18 19 20 20 19 19 18 18 17 15 12 11 11 11 11 11 11 11 11 11 11 11 11 11 11 11 11 11 11 11 11 11 11 11 12 12 12 12 12 12 12 12 12 12 12
16 16 16 18 18 19 19 19 19 18 17 17 16 14 11 10 10 11 10 10 10 10 10 10 10 10 10 10 10 10 11 11 11 11 11 11 11 11 11 11 11 11 11 11 11 11 12 12 11
16 16 17 17 18 18 18 18 18 17 17 16 15 14 11 10 10 10 10 10 9 10 10 10 10 10 10 10 10 10 10 10 10 10 10 10 11 11 11 11 11 11 11 11 11 11 11 11 11
16 15 16 17 18 18 17 17 16 16 15 14 14 13 12 11 10 9 9 9 9 9 9 9 9 9 9 10 9 10 10 10 10 10 10 10 10 10 10 10 10 10 10 10 10 10 10 10 10
16 14 16 17 18 17 17 16 15 14 14 13 12 11 10 10 10 9 9 9 9 9 9 9 9 9 9 9 9 9 9 9 9 9 9 9 9 10 10 10 10 10 10 10 10 10 10 10 10
16 15 16 17 16 16 16 15 15 14 13 13 12 11 10 9 9 9 9 9 9 8 8 8 8 8 8 8 8 8 9 9 9 9 9 9 9 9 9 9 9 9 9 10 9 9 9 9 9
15 15 16 16 15 15 15 15 14 13 13 13 13 12 10 9 9 9 8 8 8 8 8 8 8 8 8 8 8 8 8 8 8 8 8 8 9 9 9 9 9 9 9 9 9 9 9 9 8
15 14 15 14 14 13 14 13 13 13 13 12 12 11 10 10 9 8 8 7 7 8 8 8 8 7 7 7 7 7 7 8 8 8 8 8 8 8 8 8 8 8 8 8 8 8 8 8 8
15 14 14 14 13 13 12 12 12 12 12 11 11 10 10 9 9 8 7 7 7 7 7 7 7 7 7 7 7 7 7 7 7 7 7 7 7 7 7 7 7 7 7 7 7 7 7 7 7
14 13 13 13 13 12 12 11 11 12 12 11 10 10 9 9 8 8 8 7 7 7 7 7 7 7 7 7 7 6 6 6 6 7 7 7 7 7 7 7 7 7 7 7 7 7 7 7 7
13 13 12 13 13 12 11 11 12 12 11 11 10 9 9 8 8 8 7 7 7 6 6 6 6 6 6 6 6 6 6 6 6 6 6 6 6 6 6 6 6 6 6 6 6 6 6 6 6
12 12 13 13 13 12 11 10 11 12 11 10 10 9 9 8 8 7 7 7 6 6 6 6 6 6 6 5 5 5 5 5 5 5 6 5 5 5 6 6 6 5 5 5 5 5 5 5 5
12 12 13 13 12 11 10 10 10 11 11 10 10 9 9 8 7 7 6 6 6 6 5 5 5 5 5 5 5 4 4 4 4 5 5 5 5 5 5 5 5 5 5 5 5 5 4 4 4
12 12 12 13 12 11 10 10 10 10 9 9 9 9 8 7 7 6 6 5 5 5 5 5 5 5 4 4 4 4 4 4 4 4 4 4 4 4 4 4 4 4 4 4 4 4 4 4 4
11 11 11 12 11 11 10 10 10 10 9 9 9 8 8 7 6 6 5 5 5 4 4 4 4 4 4 4 4 4 3 3 3 3 3 3 3 4 4 4 4 3 3 3 3 3 3 3 2
11 10 11 10 10 9 9 9 10 10 10 9 8 8 8 7 6 5 4 4 4 4 4 4 4 4 4 4 3 3 3 3 3 2 3 3 3 3 3 3 3 3 3 3 3 2 2 2 2
10 10 10 10 8 8 9 7 9 10 9 8 7 7 7 6 5 5 4 3 4 3 3 3 3 3 3 3 3 3 3 2 2 2 2 2 2 2 2 2 2 2 2 2 2 2 2 1 1
9 10 9 9 8 8 8 8 8 9 8 7 6 7 6 5 5 4 3 3 3 3 3 3 3 2 2 2 2 2 2 2 2 2 2 2 2 2 2 2 2 2 2 2 1 1 1 1 1
8 8 8 8 7 7 8 8 7 8 8 7 6 6 6 5 4 3 3 3 2 2 2 2 2 2 2 2 2 2 2 2 2 1 1 1 1 1 1 1 1 1 1 1 1 1 0 0 0
8 7 7 7 6 7 9 8 6 7 7 6 6 5 5 4 3 3 2 2 2 2 2 2 1 1 1 1 1 1 1 1 1 1 1 1 1 1 1 1 1 1 0 0 0 0 0 -0 -0
6 7 7 7 7 8 8 7 6 6 6 6 5 5 4 3 3 2 2 2 1 1 1 1 1 1 1 1 1 1 1 1 1 1 1 1 0 0 0 0 0 -0 -0 -0 -0 -0 -1 -1 -1
6 6 7 6 6 6 7 7 6 6 5 4 4 4 3 3 2 2 1 1 1 1 0 0 0 0 0 -0 -0 -0 -0 0 0 0 0 -0 -0 -0 -0 -0 -0 -1 -1 -1 -1 -1 -1 -1 -1
6 6 5 5 5 6 7 7 5 4 4 4 3 3 3 2 2 1 1 1 0 0 -0 -0 -0 -0 -0 -1 -1 -1 -1 -1 -1 -0 -0 -1 -1 -1 -1 -1 -1 -1 -1 -1 -2 -2 -2 -2 -2
5 5 5 5 5 5 5 5 5 4 3 3 3 3 2 2 1 1 0 0 -0 -1 -1 -1 -1 -1 -1 -1 -1 -1 -1 -1 -1 -1 -1 -1 -1 -1 -1 -1 -2 -2 -2 -2 -2 -2 -2 -2 -3
5 5 4 3 4 4 4 4 3 3 3 2 2 2 1 1 1 0 -0 -1 -1 -1 -1 -2 -2 -2 -2 -2 -2 -2 -2 -2 -2 -2 -2 -2 -2 -2 -2 -2 -2 -2 -3 -3 -3 -3 -3 -3 -3
Wind_Speed
10 11 7 3 3 5 8 7 4 1 2 4 6 5 4 4 3 6 5 5 7 7 8 8 9 10 10 11 12 12 12 13 13 13 14 15 15 16 16 15 15 15 16 16 16 16 16 16 16
9 6 4 3 4 7 7 7 4 1 5 5 5 3 3 4 6 8 5 5 7 7 9 9 10 11 11 12 12 13 13 13 14 14 14 15 15 15 16 16 16 15 16 16 16 16 16 15 15
9 6 3 4 5 7 5 1 5 6 7 4 3 3 3 4 6 6 5 6 6 7 9 10 11 11 12 12 12 13 13 13 14 14 15 15 15 16 16 16 16 15 15 15 15 15 15 15 15
4 3 4 5 10 8 5 2 5 5 4 3 4 4 4 5 4 6 7 6 7 7 10 10 12 12 12 12 12 13 13 13 14 14 14 15 15 15 16 16 16 16 15 15 15 15 16 15 15
4 4 5 7 11 8 3 3 4 3 5 5 5 4 5 5 8 9 7 6 7 7 9 10 11 12 12 11 12 12 12 13 13 13 14 14 15 15 15 15 15 16 16 16 15 15 15 15 15
3 4 5 9 10 8 4 2 4 4 3 5 4 3 5 6 8 7 5 5 7 7 9 10 10 11 11 11 12 12 12 12 12 13 13 13 14 14 14 14 15 15 15 15 15 15 15 15 15
4 4 8 10 9 6 4 3 4 4 4 4 4 4 6 7 7 7 6 6 7 8 9 8 9 10 11 11 11 11 11 12 12 12 13 13 13 13 14 14 14 14 14 14 14 14 14 14 14
4 4 7 9 9 6 2 1 0 1 1 2 3 3 5 8 8 7 6 6 7 7 7 7 8 9 9 9 10 11 11 11 11 11 11 12 12 12 13 13 13 13 13 13 13 13 13 13 13
4 5 8 7 6 3 3 2 1 3 2 2 3 4 6 13 11 8 6 5 5 6 5 6 7 8 9 9 9 10 10 10 10 10 10 10 10 10 11 12 12 12 12 12 12 12 11 11 12
5 6 8 5 4 1 2 2 3 2 3 3 3 7 11 11 10 9 8 7 6 6 5 5 6 7 8 8 8 8 8 8 8 8 8 8 9 9 10 11 11 11 11 10 10 10 10 10 10
5 7 6 4 3 2 1 2 3 4 5 6 7 10 12 11 10 9 8 8 7 6 5 5 5 7 7 6 7 6 7 7 7 8 8 8 9 9 9 8 8 8 8 8 8 9 9 10 10
8 7 6 4 2 2 3 3 4 7 5 1 5 10 13 12 11 11 10 8 7 7 6 5 5 6 6 6 6 6 6 6 6 7 7 7 7 6 6 6 7 7 7 8 8 8 9 10 10
11 8 6 4 2 4 5 6 5 8 4 2 5 9 11 12 10 9 8 8 7 7 7 6 5 6 6 6 5 6 6 6 6 7 7 7 6 5 5 6 7 7 8 7 7 8 8 8 8
5 5 6 6 5 5 6 7 7 8 6 5 7 8 10 10 10 9 9 9 8 8 8 6 6 6 6 5 5 5 6 6 7 7 7 7 7 6 5 6 6 7 7 7 7 7 6 6 7
4 6 8 9 7 5 4 10 11 9 8 8 8 9 9 9 10 10 10 9 8 9 8 8 7 6 6 6 6 6 7 7 7 7 7 7 7 6 6 5 5 6 6 7 7 7 6 5 5
6 7 9 8 9 6 7 12 8 8 10 9 8 8 8 9 10 9 9 8 8 9 9 8 7 6 6 6 6 6 6 6 6 6 7 6 6 6 6 5 4 5 6 6 4 4 3 4 4
7 8 10 6 9 7 8 9 5 6 9 9 8 8 8 8 9 9 9 9 9 9 9 9 7 7 6 6 6 6 6 6 6 6 6 6 5 6 6 5 4 5 5 5 4 3 3 4 4
6 8 9 8 6 6 9 11 7 6 8 9 8 8 8 8 8 8 8 9 9 9 9 9 8 7 6 6 5 4 4 5 6 6 6 6 5 6 6 5 5 5 4 3 3 3 3 3 3
9 9 12 8 4 6 11 12 9 8 8 9 8 8 8 7 7 7 8 8 8 9 10 9 9 8 6 5 4 4 3 3 3 5 5 6 5 5 5 4 4 4 3 2 3 3 3 3 2
11 13 12 7 1 4 9 12 9 10 9 8 7 7 7 7 7 8 8 8 8 9 9 10 9 8 7 5 4 3 4 3 3 4 5 5 5 4 4 4 3 3 2 3 3 3 2 1 2
11 11 10 7 5 6 7 9 9 6 7 6 6 6 6 7 8 8 8 8 8 9 9 9 9 8 7 6 4 4 3 3 2 3 2 3 4 4 4 3 3 3 3 2 2 2 2 1 1
10 6 7 7 6 6 5 7 6 6 6 6 6 5 5 5 5 7 8 8 7 7 7 8 8 8 7 7 6 7 5 4 3 3 2 3 4 4 4 3 3 2 2 2 1 1 1 1 0
6 4 6 8 8 8 8 7 6 5 6 6 6 5 4 5 5 6 7 7 6 6 7 7 8 7 7 7 7 6 5 4 3 4 4 3 3 4 4 3 2 2 2 2 1 1 1 0 1
4 4 5 4 4 8 10 8 6 3 4 3 4 4 4 5 5 4 5 6 5 6 6 6 7 7 6 6 6 6 6 6 6 5 4 4 3 3 4 4 2 2 2 2 1 1 0 0 1
2 2 2 3 5 7 4 5 5 1 1 2 3 3 4 4 5 4 5 6 7 7 7 6 7 7 7 7 6 6 6 6 7 6 5 4 3 3 3 3 2 2 2 2 2 1 1 1 1
4 4 4 5 5 3 2 6 3 2 2 3 3 3 4 4 4 4 5 5 6 7 7 6 6 6 6 6 6 5 5 4 4 5 4 4 4 3 4 4 3 3 2 2 2 2 2 2 2
3 4 3 4 6 6 5 4 2 2 2 3 3 3 3 3 3 3 4 4 5 6 6 6 6 5 6 5 4 4 4 4 4 4 4 3 3 3 3 3 3 3 3 3 2 2 3 2 2
3 2 1 3 4 6 6 4 3 1 1 2 2 2 2 2 2 2 3 4 4 4 4 5 5 4 4 4 4 4 3 3 4 4 4 3 3 3 3 3 3 3 3 3 3 2 2 3 3
3 2 2 3 4 4 5 3 2 1 2 1 1 2 2 1 2 2 3 3 3 3 4 4 4 4 4 4 3 3 3 3 4 4 4 3 3 3 3 3 3 3 3 3 3 3 3 3 3
1 3 3 3 5 4 4 3 3 4 3 3 2 2 2 2 2 2 3 3 3 3 3 4 3 3 3 3 3 3 3 3 3 3 3 3 3 3 3 3 3 4 4 4 4 4 4 4 4
Wind_Direction
282 254 239 246 238 233 241 243 250 108 75 52 35 36 38 30 32 116 136 98 96 104 109 109 102 98 92 90 89 86 81 77 76 76 76 74 72 70 69 67 67 67 65 63 62 61 60 59 58
275 253 245 238 237 239 238 225 211 101 88 75 52 41 59 68 74 105 116 98 102 106 110 108 106 100 95 92 90 87 84 80 77 77 77 74 73 71 69 67 66 67 66 64 64 63 60 58 56
263 249 239 229 233 242 255 157 103 94 91 105 96 34 36 78 96 111 113 115 106 101 103 109 111 105 99 93 90 89 85 82 79 79 79 76 74 71 69 68 66 66 66 65 64 63 61 58 55
245 221 243 242 244 245 261 65 97 106 105 117 120 106 82 54 71 100 114 116 108 101 100 110 113 108 102 97 92 88 85 82 79 80 80 78 75 72 70 68 66 65 64 64 64 63 61 58 54
235 230 230 239 247 255 256 114 129 153 156 161 150 138 112 80 83 100 112 112 107 98 99 111 112 109 105 100 95 90 85 82 79 79 79 78 77 73 71 68 67 65 63 62 63 63 60 56 53
241 237 236 237 242 240 221 161 171 193 176 150 158 147 121 115 109 113 117 110 102 98 100 109 109 106 103 100 96 94 88 84 80 80 79 78 76 74 72 69 67 65 62 61 60 60 59 57 53
245 244 247 255 257 240 203 165 203 200 185 168 162 143 131 130 119 121 118 104 95 93 96 102 109 107 102 97 93 91 89 87 82 81 80 80 77 75 72 70 67 65 63 61 60 59 58 54 50
265 272 253 250 254 259 166 171 259 283 188 108 127 160 150 143 127 123 116 104 100 96 96 101 106 106 102 98 97 91 87 86 84 82 81 80 77 74 71 69 66 65 63 62 60 59 57 54 49
259 251 251 255 254 250 143 174 108 43 69 87 76 59 104 125 130 129 124 115 111 108 104 102 103 104 107 107 102 94 88 84 82 81 82 79 74 74 73 69 66 63 61 61 59 57 56 53 46
221 238 246 276 312 326 164 181 148 158 182 171 127 103 118 131 144 150 151 149 144 134 127 110 108 106 107 109 104 98 92 86 80 80 77 75 74 74 78 73 67 63 60 58 55 52 50 45 40
217 236 256 287 330 330 242 219 184 204 221 206 184 156 146 152 161 166 166 159 151 143 133 120 113 113 108 102 106 99 93 86 77 76 75 77 75 75 72 67 63 57 53 46 43 43 41 41 39
239 251 263 278 325 280 237 229 225 232 236 170 162 158 156 166 175 177 173 163 153 147 142 127 114 113 109 107 104 98 91 86 74 70 69 72 71 68 69 65 58 52 47 39 36 36 40 40 38
235 250 255 255 238 253 259 239 238 241 226 153 143 153 166 174 179 180 170 162 156 154 150 140 121 118 113 103 101 98 91 88 85 82 71 69 69 67 71 66 58 49 46 39 34 37 36 35 33
256 252 247 236 220 224 242 246 235 237 200 180 173 180 180 180 179 177 174 172 167 160 155 145 132 122 119 108 101 97 96 96 90 79 73 72 70 66 68 66 58 48 42 41 39 38 37 35 32
259 263 254 227 213 214 231 252 230 218 191 194 192 194 187 184 182 182 179 174 166 160 152 146 140 127 123 117 111 101 100 99 91 84 81 73 74 71 71 68 60 46 45 47 44 41 42 40 33
240 243 248 217 198 189 207 251 229 193 190 199 197 195 192 188 185 181 170 164 159 153 152 152 151 140 133 120 116 108 109 104 98 97 91 78 78 82 77 72 61 53 53 50 45 44 36 33 27
222 239 245 233 197 188 215 253 234 193 196 204 201 197 192 189 186 178 168 164 160 156 152 152 148 148 142 127 119 113 112 105 104 101 93 85 80 85 82 74 67 63 61 54 45 44 45 43 29
238 251 264 251 203 201 228 250 245 213 208 206 202 197 195 194 189 170 161 158 155 154 153 154 151 150 143 132 123 116 110 104 106 103 101 99 86 85 87 81 72 69 66 58 54 58 45 57 35
275 274 274 269 226 218 239 249 242 222 213 215 208 199 194 192 168 157 156 154 155 157 158 161 158 156 151 149 149 146 145 132 112 108 112 110 100 91 84 78 73 69 75 76 76 78 66 48 34
260 270 275 287 257 254 264 261 246 228 214 206 200 198 197 182 167 165 160 160 167 170 165 164 164 161 162 161 156 149 143 139 125 114 114 115 113 107 105 88 85 75 80 78 81 81 57 39 34
253 252 264 279 300 265 278 275 239 216 201 189 192 191 188 181 175 171 169 168 170 175 172 170 168 165 163 150 135 134 129 126 127 138 137 127 128 120 111 109 102 89 86 105 94 101 77 53 353
257 265 272 273 275 261 221 273 247 211 200 198 199 193 183 169 170 171 171 173 175 174 166 163 165 164 162 154 155 157 162 165 171 164 162 142 137 131 126 124 117 104 93 102 105 70 72 116 5
266 304 275 260 251 264 239 244 262 202 211 205 194 188 177 165 166 170 171 172 168 164 163 165 161 163 163 163 166 170 166 161 149 153 159 162 153 151 147 142 138 133 121 117 87 46 35 114 195
283 296 275 262 240 249 228 219 265 222 216 186 175 170 167 159 155 155 156 158 158 157 160 163 164 166 165 167 170 174 170 164 163 167 170 170 166 164 157 154 150 151 146 152 159 174 203 233 251
257 281 275 245 221 241 220 216 246 223 87 144 155 151 145 144 144 150 157 162 163 163 164 165 166 169 170 173 178 183 180 177 177 175 175 172 173 175 171 166 167 172 170 173 174 193 209 215 228
241 230 228 245 248 275 241 224 231 178 86 74 96 112 119 129 142 162 166 163 163 163 163 165 171 172 175 181 184 181 181 181 177 174 172 177 180 179 173 173 181 187 183 189 196 209 221 220 227
244 239 264 276 280 269 239 208 226 125 88 84 98 106 122 134 144 156 157 156 155 162 164 168 172 173 177 182 178 180 185 180 170 166 166 173 171 178 171 179 182 188 193 202 214 208 216 222 233
245 271 252 226 250 258 257 230 249 241 90 77 92 105 113 110 120 132 146 150 151 159 160 161 167 174 169 173 181 187 184 173 160 160 169 171 174 171 175 186 188 195 207 211 216 220 220 225 237
196 212 229 249 246 246 264 249 360 135 132 129 87 97 111 131 138 138 141 144 145 143 148 156 164 165 171 175 176 175 176 166 165 168 171 173 175 179 183 191 195 200 209 212 212 222 222 226 239
193 208 187 224 260 249 262 259 30 42 60 83 62 63 80 88 98 118 128 123 126 139 148 155 159 169 177 173 171 174 170 159 162 168 170 173 181 193 196 199 203 211 215 212 213 225 230 228 232
Height
1494 1496 1498 1501 1503 1503 1498 1487 1480 1482 1484 1488 1490 1491 1494 1499 1503 1513 1513 1512 1512 1513 1515 1517 1518 1520 1521 1521 1522 1523 1524 1525 1525 1526 1526 1527 1527 1528 1528 1529 1529 1529 1529 1530 1530 1530 1531 1531 1532
1494 1496 1500 1500 1502 1504 1493 1483 1482 1483 1486 1489 1492 1494 1496 1502 1504 1507 1509 1511 1512 1513 1514 1516 1518 1519 1520 1521 1522 1523 1524 1525 1526 1526 1527 1527 1528 1528 1529 1529 1529 1530 1530 1530 1531 1531 1531 1532 1533
1494 1496 1499 1497 1496 1495 1488 1479 1481 1485 1487 1490 1494 1496 1499 1504 1505 1506 1508 1510 1511 1512 1514 1516 1517 1519 1520 1521 1522 1523 1524 1525 1526 1526 1527 1528 1528 1528 1529 1529 1530 1530 1531 1531 1531 1531 1532 1533 1533
1494 1497 1497 1496 1493 1485 1481 1481 1482 1485 1489 1491 1494 1498 1501 1505 1505 1505 1507 1509 1511 1512 1513 1515 1517 1518 1519 1521 1522 1523 1524 1525 1526 1526 1527 1528 1528 1529 1529 1530 1530 1530 1531 1531 1532 1532 1532 1533 1534
1494 1495 1496 1495 1489 1482 1479 1480 1483 1485 1488 1491 1494 1497 1501 1504 1503 1504 1506 1508 1510 1511 1512 1514 1516 1518 1519 1520 1521 1522 1524 1525 1526 1526 1527 1528 1528 1529 1529 1530 1530 1531 1531 1531 1532 1532 1533 1533 1534
1494 1491 1495 1493 1485 1480 1479 1480 1483 1485 1487 1490 1493 1497 1501 1502 1502 1504 1506 1508 1509 1510 1511 1513 1515 1517 1518 1519 1521 1522 1523 1524 1525 1526 1527 1527 1528 1529 1529 1530 1531 1531 1531 1531 1532 1532 1533 1533 1534
1493 1491 1490 1485 1482 1479 1478 1479 1482 1484 1486 1489 1492 1495 1499 1500 1501 1503 1505 1507 1508 1509 1511 1512 1514 1516 1517 1518 1520 1521 1522 1524 1525 1526 1526 1527 1528 1529 1529 1530 1530 1531 1531 1531 1532 1532 1533 1533 1534
1490 1489 1484 1482 1481 1478 1478 1480 1481 1483 1486 1489 1491 1493 1496 1498 1499 1501 1503 1505 1507 1509 1510 1511 1513 1514 1516 1518 1519 1520 1521 1523 1524 1525 1526 1527 1527 1528 1529 1530 1530 1531 1531 1531 1532 1532 1532 1533 1534
1489 1490 1485 1480 1477 1476 1478 1480 1482 1484 1486 1488 1490 1492 1493 1495 1497 1500 1502 1504 1506 1507 1508 1510 1512 1513 1515 1516 1518 1520 1521 1522 1523 1524 1525 1526 1526 1527 1528 1529 1530 1530 1531 1531 1532 1532 1532 1533 1534
1486 1487 1480 1476 1474 1475 1477 1479 1482 1484 1486 1488 1490 1491 1492 1493 1495 1497 1499 1501 1503 1505 1507 1509 1510 1512 1513 1515 1516 1518 1519 1520 1522 1523 1524 1524 1525 1526 1527 1528 1529 1529 1530 1531 1531 1531 1532 1533 1533
1481 1480 1476 1475 1475 1476 1477 1479 1481 1483 1484 1485 1486 1488 1489 1491 1493 1495 1497 1499 1501 1503 1505 1507 1509 1510 1512 1513 1514 1516 1517 1519 1520 1521 1522 1523 1524 1525 1526 1527 1528 1528 1529 1529 1530 1531 1531 1532 1532
1477 1475 1475 1475 1476 1477 1477 1478 1480 1480 1481 1482 1483 1484 1486 1488 1490 1492 1494 1496 1499 1501 1503 1505 1507 1508 1510 1511 1513 1514 1516 1517 1518 1519 1521 1522 1523 1524 1525 1525 1526 1527 1528 1528 1529 1529 1530 1531 1531
1475 1474 1474 1475 1475 1476 1477 1477 1478 1478 1479 1480 1481 1482 1484 1485 1488 1490 1493 1495 1496 1498 1501 1503 1505 1506 1508 1509 1511 1512 1514 1515 1516 1518 1519 1520 1522 1523 1523 1524 1525 1526 1526 1527 1527 1528 1529 1529 1530
1471 1472 1472 1473 1473 1475 1476 1475 1476 1473 1476 1477 1478 1480 1481 1483 1485 1487 1490 1491 1493 1496 1498 1500 1502 1504 1505 1507 1509 1510 1512 1513 1515 1516 1518 1519 1520 1521 1522 1523 1524 1525 1525 1526 1526 1527 1527 1528 1529
1472 1472 1470 1469 1470 1472 1475 1473 1469 1469 1472 1474 1475 1477 1478 1480 1482 1484 1486 1488 1490 1493 1495 1497 1499 1502 1503 1505 1507 1508 1510 1511 1513 1514 1516 1517 1518 1520 1520 1521 1522 1523 1524 1524 1525 1525 1526 1527 1527
1471 1471 1470 1464 1466 1469 1475 1469 1463 1465 1467 1469 1471 1473 1475 1477 1479 1481 1483 1485 1487 1490 1492 1494 1497 1499 1501 1503 1505 1506 1508 1509 1511 1512 1514 1516 1517 1518 1519 1520 1521 1521 1522 1523 1523 1524 1524 1525 1525
1469 1469 1463 1462 1462 1464 1469 1465 1461 1462 1463 1465 1468 1470 1471 1473 1475 1477 1479 1482 1484 1487 1489 1491 1493 1496 1498 1500 1502 1504 1506 1507 1509 1510 1512 1513 1515 1516 1517 1518 1519 1520 1520 1521 1522 1522 1523 1523 1523
1465 1463 1458 1458 1458 1461 1464 1461 1459 1460 1460 1461 1463 1466 1468 1469 1471 1473 1476 1478 1481 1483 1486 1488 1490 1493 1495 1497 1499 1501 1503 1505 1506 1508 1510 1511 1513 1514 1515 1516 1517 1518 1518 1519 1520 1520 1521 1522 1522
1460 1460 1458 1455 1455 1458 1458 1457 1455 1456 1457 1458 1459 1461 1463 1466 1468 1470 1472 1475 1477 1480 1482 1484 1487 1489 1492 1494 1495 1498 1500 1502 1503 1505 1507 1509 1511 1512 1513 1514 1515 1515 1516 1517 1518 1518 1519 1519 1520
1460 1460 1457 1455 1455 1457 1456 1453 1450 1450 1451 1453 1455 1457 1459 1462 1465 1467 1469 1471 1473 1475 1478 1481 1484 1486 1489 1491 1493 1495 1497 1499 1501 1503 1505 1507 1508 1510 1510 1512 1513 1513 1515 1515 1516 1516 1517 1517 1518
1457 1458 1457 1458 1458 1457 1458 1453 1447 1444 1446 1449 1451 1453 1456 1458 1461 1463 1465 1467 1470 1472 1474 1477 1480 1483 1486 1488 1491 1493 1495 1497 1499 1501 1502 1504 1506 1507 1509 1510 1510 1511 1512 1513 1514 1515 1515 1516 1516
1457 1454 1455 1457 1462 1461 1458 1460 1445 1442 1444 1446 1448 1450 1452 1455 1457 1460 1462 1464 1466 1469 1472 1474 1477 1480 1483 1485 1487 1489 1490 1492 1495 1497 1499 1501 1503 1504 1506 1507 1508 1509 1509 1510 1511 1512 1513 1514 1514
1454 1454 1455 1455 1458 1460 1454 1458 1446 1438 1442 1444 1446 1448 1450 1452 1455 1457 1459 1461 1463 1466 1469 1472 1474 1477 1480 1482 1484 1486 1488 1490 1492 1494 1496 1498 1499 1501 1503 1504 1505 1506 1507 1508 1509 1510 1510 1511 1512
1455 1455 1454 1455 1458 1461 1448 1452 1447 1441 1439 1440 1443 1445 1447 1450 1452 1454 1457 1459 1461 1464 1466 1469 1471 1474 1476 1479 1481 1483 1485 1487 1489 1491 1492 1494 1496 1497 1499 1500 1502 1502 1503 1504 1505 1507 1507 1508 1509
1456 1460 1462 1461 1460 1452 1440 1446 1447 1440 1439 1440 1442 1444 1446 1448 1450 1452 1454 1457 1459 1461 1463 1466 1468 1470 1473 1475 1477 1480 1482 1484 1485 1487 1488 1490 1492 1494 1495 1497 1498 1499 1500 1501 1502 1503 1504 1505 1505
1457 1457 1461 1461 1453 1445 1441 1445 1445 1440 1439 1439 1441 1443 1445 1447 1449 1451 1453 1454 1456 1458 1460 1463 1465 1467 1469 1472 1474 1476 1478 1480 1482 1484 1485 1487 1488 1490 1492 1493 1494 1495 1496 1497 1498 1499 1500 1501 1501
1455 1456 1453 1457 1453 1452 1442 1439 1441 1439 1440 1441 1442 1443 1445 1447 1448 1450 1451 1453 1454 1456 1457 1460 1462 1464 1466 1468 1470 1472 1474 1476 1478 1480 1482 1483 1485 1486 1488 1489 1490 1491 1492 1493 1494 1495 1496 1497 1497
1455 1455 1458 1458 1457 1451 1437 1437 1443 1443 1442 1442 1443 1444 1445 1446 1447 1449 1450 1451 1452 1454 1455 1457 1459 1461 1463 1465 1467 1469 1471 1473 1474 1476 1478 1479 1481 1482 1483 1485 1486 1487 1488 1489 1490 1491 1491 1492 1493
1456 1457 1456 1456 1453 1451 1446 1447 1442 1441 1442 1443 1444 1444 1445 1446 1447 1448 1448 1450 1451 1452 1453 1454 1456 1458 1460 1462 1463 1465 1467 1469 1470 1472 1473 1475 1476 1478 1479 1480 1481 1482 1483 1484 1485 1486 1487 1487 1488
1452 1453 1457 1462 1457 1450 1447 1451 1444 1443 1442 1443 1444 1445 1446 1446 1447 1447 1448 1448 1449 1450 1451 1452 1453 1455 1457 1459 1460 1461 1463 1465 1466 1468 1469 1471 1472 1473 1475 1476 1477 1478 1479 1479 1480 1481 1482 1482 1483